This is the latest recevied weather packets stored in our database for station/object NE1CU. If no packets are shown the sender has not sent any weather packets the latest 10 day(s).
| Time | Temp. | Humidity | Pressure | Rain* | Wind** | Luminosity | Snow |
|---|---|---|---|---|---|---|---|
| 1778065315 | 14.44° C | 85% | 1010.5 hPa | 0 mm | - | 52 W/m² | - |
| 1778065011 | 14.44° C | 85% | 1010.6 hPa | 0 mm | - | 68 W/m² | - |
| 1778064708 | 14.44° C | 86% | 1010.5 hPa | 0 mm | - | 74 W/m² | - |
| 1778064406 | 13.89° C | 86% | 1010.4 hPa | 0 mm | - | 60 W/m² | - |
| 1778064104 | 13.89° C | 87% | 1010.2 hPa | 0 mm | - | 50 W/m² | - |
| 1778063801 | 13.89° C | 87% | 1010.2 hPa | 0 mm | - | 42 W/m² | - |
| 1778063497 | 13.89° C | 87% | 1010.4 hPa | 0 mm | - | 40 W/m² | - |
| 1778063196 | 13.89° C | 87% | 1010.5 hPa | 0 mm | - | 36 W/m² | - |
| 1778062893 | 13.33° C | 88% | 1010.3 hPa | 0 mm | - | 31 W/m² | - |
| 1778062589 | 13.33° C | 88% | 1010.3 hPa | 0 mm | - | 25 W/m² | - |
| 1778062286 | 13.33° C | 88% | 1010.3 hPa | 0 mm | - | 17 W/m² | - |
| 1778061985 | 13.33° C | 87% | 1010.2 hPa | 0 mm | - | 13 W/m² | - |
| 1778061682 | 13.33° C | 88% | 1010.2 hPa | 0 mm | - | 9 W/m² | - |
| 1778061381 | 13.33° C | 87% | 1010.2 hPa | 0 mm | - | 7 W/m² | - |
| 1778061077 | 13.33° C | 87% | 1010.3 hPa | 0 mm | - | 5 W/m² | - |
| 1778060775 | 13.33° C | 87% | 1010.1 hPa | 0 mm | - | 3 W/m² | - |
| 1778060472 | 13.33° C | 87% | 1010.2 hPa | 0 mm | - | 2 W/m² | - |
| 1778060171 | 13.33° C | 87% | 1010.2 hPa | 0 mm | - | 1 W/m² | - |
| 1778059867 | 13.33° C | 87% | 1010 hPa | 0 mm | - | 0 W/m² | - |
| 1778059565 | 13.33° C | 87% | 1009.9 hPa | 0 mm | - | 0 W/m² | - |
| 1778059261 | 13.33° C | 86% | 1010.2 hPa | 0 mm | - | 0 W/m² | - |
| 1778058960 | 13.33° C | 86% | 1010.3 hPa | 0 mm | - | 0 W/m² | - |
| 1778058657 | 13.33° C | 86% | 1010.3 hPa | 0 mm | - | 0 W/m² | - |
| 1778058355 | 13.33° C | 86% | 1010.4 hPa | 0 mm | - | 0 W/m² | - |
| 1778058051 | 13.33° C | 86% | 1010.2 hPa | 0 mm | - | 0 W/m² | - |
* Rain latest hour (hover to see other rain measurements)
** Current wind speed in m/s (hover to see current wind gust speed)